Regional Weather Roundup
Issued by NWS

Home | Current Version | Previous Version | Graphics & Text | Print | Product List | Glossary On
Versions: 1 2 3 4 5 6 7 8 9 10 11 12 13 14 15 16 17 18 19 20 21 22 23 24 25 26 27 28 29 30 31 32 33 34 35 36 37 38 39 40 41 42 43 44 45 46 47 48 49 50
000
ASUS45 KPSR 250110
RWRAZ

ARIZONA HOURLY REGIONAL WEATHER ROUNDUP
NATIONAL WEATHER SERVICE PHOENIX AZ
600 PM MST FRI MAR 24 2017

NOTE: FAIR INDICATES FEW OR NO CLOUDS BELOW 12,000 FEET WITH NO
SIGNIFICANT WEATHER AND/OR OBSTRUCTIONS TO VISIBILITY.

AZZ001>003-036-250200-
NORTHWEST ARIZONA

CITY           SKY/WX    TMP DP  RH WIND       PRES   REMARKS
BULLHEAD CITY  SUNNY     81  21  11 S9        30.02F
KINGMAN        CLEAR     66  12  12 SW16      30.13F
$$

AZZ004>008-015-016-018-250200-
NORTH CENTRAL ARIZONA

CITY           SKY/WX    TMP DP  RH WIND       PRES   REMARKS
GRAND CANYON   CLEAR     54  23  30 SW7       30.23S
WILLIAMS       CLEAR     55  25  30 W8        30.24R
PRESCOTT       CLEAR     64  24  21 NE5       30.18S
FLAGSTAFF      CLEAR     50  34  54 SW9       30.23S
PAYSON         CLEAR     61  23  23 SW6       30.22S
PAGE           CLEAR     64  38  38 N8        30.12S
$$

AZZ009>014-017-250200-
NORTHEAST ARIZONA

CITY           SKY/WX    TMP DP  RH WIND       PRES   REMARKS
WINSLOW        CLEAR     64   9  11 N3        30.17S
SAINT JOHNS    CLEAR     59  22  24 W13       30.18R
WINDOW ROCK    CLEAR     57  16  20 NW10      30.19R
SHOW LOW       CLEAR     54  16  22 NW10      30.23F
$$

AZZ023-250200-
GREATER PHOENIX AREA

CITY           SKY/WX    TMP DP  RH WIND       PRES   REMARKS
PHOENIX        CLEAR     76  32  20 CALM      30.06F
BUCKEYE        CLEAR     75  32  20 SE5       30.07S
GLENDALE       CLEAR     77  32  19 CALM      30.08F
LUKE AFB       CLEAR     77  33  20 S7        30.06S
DEER VALLEY    CLEAR     74  35  24 SE5       30.07F
SCOTTSDALE     CLEAR     74  32  21 S3        30.09F
MESA-FALCON    CLEAR    N/A N/A N/A S6        30.06S
MESA-GATEWAY   CLEAR     73  28  19 CALM      30.09F
$$

AZZ027-028-250200-
SOUTHWEST MARICOPA COUNTY AND PINAL COUNTY

CITY           SKY/WX    TMP DP  RH WIND       PRES   REMARKS
CASA GRANDE    NOT AVBL
GILA BEND      FAIR      78  26  14 SW5       30.07S
$$

AZZ503-504-507>509-250200-
SOUTHEAST ARIZONA

CITY           SKY/WX    TMP DP  RH WIND       PRES   REMARKS
TUCSON         CLEAR     73  19  13 NW7       30.14F
DAVIS-MONTHAN  CLEAR     70  22  16 NW6       30.14S
RYAN FIELD     CLEAR     72  23  16 NW10      30.15S
NOGALES        CLEAR     68  17  14 VRB3      30.16S
SIERRA VISTA   CLEAR     64  12  12 NW10      30.20S
DOUGLAS        CLEAR     69  14  12 NW10      30.15F
SAFFORD        CLEAR     71  27  19 NW16      30.08R
$$

AZZ020-021-025-026-031-250200-
SOUTHWEST ARIZONA

CITY           SKY/WX    TMP DP  RH WIND       PRES   REMARKS
YUMA           SUNNY     79  29  16 S8        30.05F
$$

CAZ031-033-041-043-047-048-061-250200-
SOUTHERN CALIFORNIA

CITY           SKY/WX    TMP DP  RH WIND       PRES   REMARKS
DOWNTOWN L.A.  MOSUNNY   63  53  70 W6        30.16S
L.A. AIRPORT   PTSUNNY   61  53  75 W15       30.16F
SAN DIEGO      MOSUNNY   65  50  58 NW9       30.18F
BURBANK        MOSUNNY   65  50  58 S8        30.14S
ONTARIO        PTSUNNY   65  43  44 SW12      30.14S
RIVERSIDE      PTSUNNY   65  46  50 W12       30.14S
PALM SPRINGS   MOSUNNY   80  30  16 VRB7      30.06F
EL CENTRO NAS  SUNNY     81  33  17 SE7       30.04F
IMPERIAL       SUNNY     81  38  21 E12       30.02F
BLYTHE         SUNNY     81  28  14 S12       30.03F
NEEDLES        SUNNY     81  24  12 S7        30.04S
$$

NVZ020-UTZ003-250200-
SOUTHERN NEVADA-UTAH

CITY           SKY/WX    TMP DP  RH WIND       PRES   REMARKS
LAS VEGAS      MOSUNNY   78  20  11 SE8       29.99F
SALT LAKE CITY CLOUDY    57  34  41 S10       30.05F
$$

NMZ009-TXZ055-250200-
NEW MEXICO-WEST TEXAS

CITY           SKY/WX    TMP DP  RH WIND       PRES   REMARKS
ALBUQUERQUE    PTCLDY    65  17  15 NW21G30   30.06R
EL PASO        PTCLDY    71  20  14 W14G21    30.04R
$$


........................KEY........................
SKY/WX - SKY CONDITION/WEATHER
TMP    - TEMPERATURE IN FAHRENHEIT
DP     - DEW POINT IN FAHRENHEIT
RH     - RELATIVE HUMIDITY IN PERCENT
WIND   - DIRECTION AND SPEED IN MILES PER HOUR (MPH)
VRB    - VARIABLE WIND DIRECTION
PRES   - MEAN SEA LEVEL PRESSURE IN INCHES OF MERCURY
         F - FALLING PRESSURE   R - RISING PRESSURE
         S - STEADY PRESSURE
VSB    - VISIBILITY IN MILES
HX     - HEAT INDEX IN FAHRENHEIT
WCI    - WIND CHILL INDEX IN FAHRENHEIT
TC     - TEMPERATURE IN CELSIUS WHICH IS ALSO KNOWN AS
         TEMPERATURE IN CENTIGRADE
AFB    - AIR FORCE BASE
         LUKE AFB IS LUKE AIR FORCE BASE
         DAVIS-MONTHAN IS DAVIS-MONTHAN AIR FORCE BASE
NAS    - NAVAL AIR STATION
         EL CENTRO NAS IS EL CENTRO NAVAL AIR STATION
N/A    - NOT AVAILABLE




USA.gov is the U.S. government's official web portal to all federal, state and local government web resources and services.